Showing default

COSMOS 1926, 18939

Orbit data source: Space-Track

COSMOS 1926, 18939 is a payload satellite owned by UNKS (CIS) in LEO that was launched on Fri, 11 Mar 1988 UTC via a KOSMOS 11K65M launch vehicle from the Plesetsk Missile And Space Complex (PKMTR). Payload-class satellites include a variety of spacecraft equipped with specific instruments for various scientific and technological missions. These include communications satellites like Starlink; space stations such as the ISS; scientific satellites like the Hubble; Earth observation satellites from companies like Planet Labs, Umbra, and HawkEye 360; GPS; miniature CubeSats for education and research; and military/defense satellites.

Loading next visibility...
Identifier
18939, 1988-016C
Orbit
LEO
Country
Flag of CISCIS
Related business
Manufacturer
NPO PM
Mission
Defense Communications
Bus & Motor
STRELA-1 11F625, Unknown motor
Mass
60 kg wet, 60 kg dry
Launch date (UTC)
1988-03-11 (38 years ago)
Launch vehicle
KOSMOS 11K65M
Launch site
Plesetsk Missile And Space Complex (PKMTR)
Object type
Payload
Rocket body
Debris
Shape & HBR
Sphere, 0.4 m
Radar Cross Section
0.588 m², Medium (>0.1 m² and < 1m²)

Expand to show TLE details & history
Last TLE update: 19 hours ago

TLE from 19 hours ago
0 COSMOS 1926
1 18939U 88016C   25348.82282154 -.00000014  00000-0  96211-5 0  9997
2 18939  74.0040 227.6985 0012004 160.6582 269.3778 12.48854301721627
Epoch: 2025-12-14T19:44Z
TLE epoch observation values (Epoch: 2025-12-14T19:44:51.781Z)
Latitude
64.60942°
Longitude
-115.30445°
Altitude
1,480.179 km
Speed
7.129 km/s
True Right ascension
17h 38m 33s
True Declination
64° 29' 18"
Sunlit
Object was in daylight at epoch
Visualization orbit readout
Latitude
Unknown
Longitude
Unknown
Altitude
Unknown
Speed
Unknown
Apparent Right ascension
Unknown
Apparent Declination
Unknown
Sunlit
N/A
Visualization observer readout
Local Sidereal Time
13:18:47
Azimuth
Unknown
Elevation
Unknown
Doppler factor
Unknown
Orbital elements
Apogee altitude
1,476.547 km
Perigee altitude
1,457.712 km
Semi-major axis
7,845.266 km
Eccentricity
0.0012
Inclination
74.004°
RAAN
227.6985°
Arg. of periapsis
160.6582°
True anomaly
269.24025°
Mean anomaly
269.3778°
Eccentric anomaly
269.30903°
Mean motion
3.12343 °/min
Orbital period
115.26 mins
BSTAR
0.0000096211
Loading maneuver chart data...
Computing Atmospheric mass density...
Loading historical data...
Loading historical data...
Loading historical data...
Loading historical data...
Loading historical data...
Loading historical data...
Loading historical data...

Documentation

Showing up to 5 results
|